Location: Rehoboth Beach
(38.7438°N, 75.1341°W)
Time: 19:30:58
(UTC-04:00)

Cosmos 1452 Rocket - Visible Passes

Search period start: 16 August 2017 00:00
Search period end: 26 August 2017 00:00
Orbit: 767 x 776 km, 74.1° (Epoch: 15 August)

Date Brightness Start Highest point End Pass type
(mag) Time Alt. Az. Time Alt. Az. Time Alt. Az.
16 Aug 4.0 20:28:49 10° SSE 20:33:40 38° ESE 20:38:32 10° NE visible
16 Aug 5.7 22:11:34 10° WSW 22:15:52 25° WNW 22:20:13 10° N visible
17 Aug 4.9 21:34:40 10° SW 21:39:38 41° WNW 21:44:37 10° N visible
18 Aug 3.9 20:58:14 10° SSW 21:03:29 69° WNW 21:08:47 10° NNE visible
19 Aug 6.5 05:46:48 10° N 05:50:53 22° ENE 05:54:56 10° ESE visible
19 Aug 3.5 20:22:13 10° S 20:27:27 70° ESE 20:32:43 10° NNE visible
19 Aug 6.6 22:07:11 10° W 22:10:08 15° WNW 22:13:05 10° NNW visible
20 Aug 6.8 05:11:51 10° NNE 05:14:29 14° NE 05:17:07 10° E visible
20 Aug 6.0 21:29:32 10° WSW 21:33:46 24° WNW 21:38:00 10° N visible
21 Aug 5.1 20:52:35 10° SW 20:57:30 38° WNW 21:02:27 10° N visible
22 Aug 5.3 05:40:08 10° N 05:45:02 37° ENE 05:49:53 10° SE visible
22 Aug 4.1 20:16:07 10° SSW 20:21:21 65° WNW 20:26:38 10° NNE visible
23 Aug 6.2 05:04:35 10° N 05:08:46 23° ENE 05:12:55 10° ESE visible
23 Aug 6.8 21:25:17 10° W 21:28:02 14° NW 21:30:47 10° NNW visible
24 Aug 6.8 04:29:33 10° NNE 04:32:23 14° NE 04:35:12 10° E visible
24 Aug 6.2 20:47:32 10° WSW 20:51:39 23° WNW 20:55:47 10° N visible
25 Aug 4.0 05:33:47 10° NNW 05:39:03 67° ENE 05:44:15 10° SSE visible
25 Aug 5.4 20:10:31 10° SW 20:15:22 36° WNW 20:20:16 10° N visible
